This is the latest recevied weather packets stored in our database for station/object N0QWM. If no packets are shown the sender has not sent any weather packets the latest 1 day(s).
| Time | Temp. | Humidity | Pressure | Rain* | Wind** | Luminosity | Snow |
|---|---|---|---|---|---|---|---|
| 1777998309 | 22.78° C | 65% | 1020.3 hPa | 0 mm | 1.34 m/s, 283° | 432 W/m² | - |
| 1777998006 | 22.22° C | 65% | 1020.2 hPa | 0 mm | 0.45 m/s, 330° | 724 W/m² | - |
| 1777997703 | 22.22° C | 67% | 1020.4 hPa | 0 mm | 0.45 m/s, 301° | 199 W/m² | - |
| 1777997400 | 21.67° C | 67% | 1020.5 hPa | 0 mm | 1.79 m/s, 278° | 774 W/m² | - |
| 1777997098 | 21.67° C | 67% | 1020.3 hPa | 0 mm | 2.24 m/s, 239° | 255 W/m² | - |
| 1777996794 | 21.67° C | 67% | 1020.4 hPa | 0 mm | 1.34 m/s, 256° | 220 W/m² | - |
| 1777996491 | 21.67° C | 66% | 1020.4 hPa | 0 mm | 0.89 m/s, 267° | 244 W/m² | - |
| 1777996188 | 21.67° C | 67% | 1020.4 hPa | 0 mm | 1.79 m/s, 260° | 736 W/m² | - |
| 1777995884 | 21.67° C | 68% | 1020.7 hPa | 0 mm | 1.79 m/s, 248° | 195 W/m² | - |
| 1777995580 | 21.67° C | 68% | 1020.6 hPa | 0 mm | 0.89 m/s, 270° | 229 W/m² | - |
| 1777995277 | 21.11° C | 69% | 1020.4 hPa | 0 mm | 0.45 m/s, 329° | 888 W/m² | - |
| 1777994968 | 21.11° C | 68% | 1020.6 hPa | 0 mm | 1.34 m/s, 331° | 401 W/m² | - |
| 1777994666 | 21.67° C | 66% | 1020.5 hPa | 0 mm | 0.45 m/s, 232° | 183 W/m² | - |
| 1777994365 | 21.67° C | 67% | 1020.7 hPa | 0 mm | 1.79 m/s, 283° | 164 W/m² | - |
| 1777994056 | 21.11° C | 68% | 1020.5 hPa | 0 mm | 1.34 m/s, 310° | 730 W/m² | - |
| 1777993754 | 21.67° C | 69% | 1020.7 hPa | 0 mm | 0.45 m/s, 285° | 497 W/m² | - |
| 1777993450 | 21.11° C | 69% | 1020.6 hPa | 0 mm | 0.45 m/s, 194° | 795 W/m² | - |
| 1777993144 | 21.67° C | 68% | 1020.5 hPa | 0 mm | 0.45 m/s, 296° | 804 W/m² | - |
| 1777992843 | 21.67° C | 68% | 1020.5 hPa | 0 mm | 0.45 m/s, 290° | 807 W/m² | - |
| 1777992540 | 20.56° C | 69% | 1020.7 hPa | 0 mm | 1.34 m/s, 315° | 751 W/m² | - |
| 1777992239 | 20.56° C | 69% | 1020.6 hPa | 0 mm | 0 m/s | 749 W/m² | - |
| 1777991935 | 20.56° C | 69% | 1020.7 hPa | 0 mm | 0 m/s | 758 W/m² | - |
| 1777991633 | 20° C | 71% | 1020.3 hPa | 0 mm | 0.89 m/s, 306° | 710 W/m² | - |
| 1777991330 | 20° C | 71% | 1020.7 hPa | 0 mm | 0.45 m/s, 293° | 696 W/m² | - |
| 1777991028 | 20° C | 71% | 1020.6 hPa | 0 mm | 0 m/s | 674 W/m² | - |
* Rain latest hour (hover to see other rain measurements)
** Current wind speed in m/s (hover to see current wind gust speed)